Crescent City, CA

12:13 AM PDT on April 25, 2017 (GMT -0700)
McNamara

Weather History for KCEC - February, 2014

Change the Weather History Date:

Tuesday, February 4, 2014

  Actual Average Record
Temperature  
Mean Temperature 43 °F 47 °F  
Max Temperature 50 °F 53 °F 71 °F (1993)
Min Temperature 35 °F 42 °F 30 °F (1989)
Degree Days  
Heating Degree Days 22 18  
Month to date heating degree days 83 72  
Since 1 July heating degree days 2804 2758  
Moisture  
Dew Point 33 °F    
Average Humidity 73    
Maximum Humidity 85    
Minimum Humidity 60    
Precipitation  
Precipitation 0.00 in 0.36 in 2.72 in (1951)
Month to date precipitation T 1.36  
Year to date precipitation 2.15 11.75  
Since 1 July precipitation 11.14  
Snow  
Snow 0.00 in - - ()
Month to date snowfall 0.0  
Since 1 July snowfall 0.0  
Snow Depth 0.00 in    
Sea Level Pressure  
Sea Level Pressure 30.20 in    
Wind  
Wind Speed 5 mph (NNE)    
Max Wind Speed 13 mph    
Max Gust Speed 15 mph    
Visibility 10 miles    
Events      
T = Trace of Precipitation, MM = Missing Value Source: NWS Daily Summary

Daily Weather History Graph

Daily Weather History Graph

Search for Another Location

Airport or City:

Trip Planner

Search our weather history database for the weather conditions in past years. The results will help you decide how hot, cold, wet, or windy it might be!

Date:

Astronomy

Feb. 04, 2014 Rise Set
Actual Time 7:25 AM PST 5:36 PM PST
Civil Twilight 6:56 AM PST 6:05 PM PST
Nautical Twilight 6:23 AM PST 6:38 PM PST
Astronomical Twilight 5:51 AM PST 7:11 PM PST
Moon 10:01 AM PST (2/4) 11:42 PM PST (2/4)
Length of Visible Light 11h 08m
Length of Day
10h 10m
Waxing Crescent, 30% of the Moon is Illuminated
Feb 4
Waxing Crescent
Feb 6
First Quarter
Feb 14
Full
Feb 22
Last Quarter
Mar 1
New

Hourly Weather History & Observations

Time (PST) Temp. Windchill Dew Point Humidity Pressure Visibility Wind Dir Wind Speed Gust Speed Precip Events Conditions
12:56 AM 37.0 °F 31.6 °F 33.1 °F 86% 30.17 in 10.0 mi East 6.9 mph - N/A   Overcast
1:56 AM 37.9 °F 33.5 °F 33.1 °F 83% 30.18 in 10.0 mi ENE 5.8 mph - N/A   Overcast
2:56 AM 37.0 °F 31.6 °F 32.0 °F 82% 30.18 in 10.0 mi ENE 6.9 mph - N/A   Mostly Cloudy
3:56 AM 37.0 °F 32.4 °F 32.0 °F 82% 30.17 in 10.0 mi East 5.8 mph - N/A   Overcast
4:56 AM 36.0 °F 32.1 °F 30.9 °F 82% 30.17 in 10.0 mi ENE 4.6 mph - N/A   Scattered Clouds
5:56 AM 36.0 °F 30.3 °F 30.9 °F 82% 30.17 in 10.0 mi East 6.9 mph - N/A   Mostly Cloudy
6:56 AM 35.1 °F 32.2 °F 30.9 °F 85% 30.19 in 10.0 mi ENE 3.5 mph - N/A   Overcast
7:56 AM 37.0 °F 33.3 °F 32.0 °F 82% 30.20 in 10.0 mi ENE 4.6 mph - N/A   Overcast
8:56 AM 39.9 °F 36.7 °F 34.0 °F 79% 30.22 in 10.0 mi East 4.6 mph - N/A   Overcast
9:56 AM 45.0 °F 43.5 °F 36.0 °F 71% 30.23 in 10.0 mi East 3.5 mph - N/A   Overcast
10:56 AM 46.9 °F - 36.0 °F 66% 30.23 in 10.0 mi NNW 5.8 mph - N/A   Overcast
11:56 AM 46.9 °F - 36.0 °F 66% 30.23 in 10.0 mi WNW 5.8 mph - N/A   Overcast
12:56 PM 46.9 °F - 37.0 °F 68% 30.21 in 10.0 mi NW 6.9 mph - N/A   Overcast
1:56 PM 48.9 °F - 37.0 °F 64% 30.18 in 10.0 mi NW 8.1 mph - N/A   Scattered Clouds
2:56 PM 48.0 °F - 36.0 °F 63% 30.18 in 10.0 mi NW 8.1 mph - N/A   Clear
3:56 PM 46.9 °F - 33.1 °F 59% 30.18 in 10.0 mi NW 9.2 mph - N/A   Clear
4:56 PM 46.0 °F 41.4 °F 35.1 °F 66% 30.18 in 10.0 mi NW 9.2 mph - N/A   Clear
5:56 PM 44.1 °F 40.8 °F 32.0 °F 63% 30.19 in 10.0 mi NNW 5.8 mph - N/A   Clear
6:56 PM 44.1 °F 40.1 °F 33.1 °F 65% 30.19 in 10.0 mi NNW 6.9 mph - N/A   Clear
7:56 PM 43.0 °F 38.8 °F 33.1 °F 68% 30.21 in 10.0 mi NNW 6.9 mph - N/A   Clear
8:56 PM 39.9 °F - 33.1 °F 77% 30.22 in 10.0 mi Calm Calm - N/A   Clear
9:56 PM 37.9 °F - 32.0 °F 79% 30.22 in 10.0 mi Calm Calm - N/A   Clear
10:56 PM 37.9 °F 35.5 °F 32.0 °F 79% 30.24 in 10.0 mi East 3.5 mph - N/A   Clear
11:56 PM 37.0 °F - 32.0 °F 82% 30.22 in 10.0 mi Calm Calm - N/A   Clear